User: anonymous   Login
Location: Unspecified
(0.0000°N, 0.0000°E)
Time: 11:54:58
(UTC+00:00)
Language:

Spot 4 - Orbit

View from above orbital plane
View from above orbital plane
View from above satellite
View from above satellite

Ground track
Ground track

The orbit data is extracted from the following two-line orbital elements,

1 25260U 98017A   18294.22994501  .00000027  00000-0  17421-4 0  9994
2 25260  98.3218  19.0681 0012699 198.9379 161.1347 14.53552404 73170
Epoch (UTC): 21 October 2018 05:31:07
Eccentricity: 0.0012699
inclination: 98.3218°
perigee height: 705 km
apogee height: 723 km
right ascension of ascending node: 19.0681°
argument of perigee: 198.9379°
revolutions per day: 14.53552404
mean anomaly at epoch: 161.1347°
orbit number at epoch: 7317

The dashed part of the orbit path shows where the satellite is in the earth's shadow,  

DLR